Regional Weather Roundup
Issued by NWS

Home | Current Version | Previous Version | Graphics & Text | Print | Product List | Glossary On
Versions: 1 2 3 4 5 6 7 8 9 10 11 12 13 14 15 16 17 18 19 20 21 22 23 24 25 26 27 28 29 30 31 32 33 34 35 36 37 38 39 40 41 42 43 44 45 46 47 48 49 50
024
ASUS45 KBOU 281707
RWRCO

WEATHER ROUNDUP FOR COLORADO
NATIONAL WEATHER SERVICE DENVER/BOULDER CO
1100 AM MDT SUN AUG 28 2016

NOTE: "FAIR" INDICATES FEW OR NO CLOUDS BELOW 12000 FEET WITH NO
SIGNIFICANT WEATHER AND/OR OBSTRUCTIONS TO VISIBILITY.

COZ001>005-013-030-031-281800-
...NORTHWEST COLORADO...

CITY           SKY/WX    TMP DP  RH WIND       PRES   REMARKS
CRAIG          FAIR      71  37  28 CALM      30.30S
HAYDEN         FAIR      66  36  32 CALM      30.32S
MEEKER         FAIR      71  42  35 CALM      30.31F
MOUNT WERNER   NOT AVBL
STEAMBOAT SPGS FAIR      65  38  37 CALM      30.34S
WALDEN         FAIR      61  34  36 S5        30.41S
$$

COZ006>008-011-281800-
...WEST CENTRAL VALLEYS...

CITY           SKY/WX    TMP DP  RH WIND       PRES   REMARKS
GRAND JUNCTION CLOUDY    66  50  56 SE8       30.27R
MONTROSE       FAIR      64  47  53 VRB5      30.32S
EAGLE          MOSUNNY   64  41  42 CALM      30.36F
RIFLE          FAIR      64  48  56 CALM      30.30S
DELTA          NOT AVBL
NUCLA          CLOUDY   N/A N/A N/A NW3       30.38S
$$

COZ017>023-064>068-281800-
...SOUTHWEST COLORADO...

CITY           SKY/WX    TMP DP  RH WIND       PRES   REMARKS
DURANGO        FAIR      65  43  44 VRB3      30.34F
CORTEZ         CLOUDY    70  47  43 N5        30.31S
PAGOSA SPRINGS FAIR      63  39  41 CALM      30.40S
TELLURIDE      CLOUDY    56  46  67 W6        30.49S
WOLF CREEK PAS FAIR      45  36  70 S9G16     30.64S
$$

COZ009-010-012-014-032>034-037-058>063-281800-
...CENTRAL COLORADO...

CITY           SKY/WX    TMP DP  RH WIND       PRES   REMARKS
ASPEN          PTSUNNY   61  43  51 VRB3      30.40R
BUENA VISTA    FAIR      62  40  44 W3        30.40S
COPPER MTN     CLOUDY    46  34  61 E5        30.64S
BERTHOUD PASS  CLOUDY    41  28  60 NE3       30.67R
COTTONWOOD PAS CLOUDY    61  37  41 CALM      30.51S
GUNNISON       FAIR      57  45  62 CALM      30.44S
KREMMLING      FAIR      61  32  33 CALM      30.39F
LEADVILLE      RAIN      46  43  89 NW5       30.52R FOG
MONARCH PASS   CLOUDY    43  36  75 E6        30.73R
SALIDA         FAIR      66  44  45 W5        30.44F
SUNLIGHT       CLOUDY    50  41  71 SE6       30.60R
WILKERSON PASS PTSUNNY   52  34  50 CALM      30.61S
$$

COZ069>075-281800-
...SAN LUIS VALLEY/SANGRE DE CRISTO MOUNTAINS...

CITY           SKY/WX    TMP DP  RH WIND       PRES   REMARKS
ALAMOSA        FAIR      62  44  51 VRB5      30.38S
LA VETA PASS   FAIR      57  39  51 SW7       30.51R
SAGUACHE       FAIR      63  43  48 SE5       30.40F
$$

COZ035-036-038>040-281800-
...NORTHERN COLORADO FRONT RANGE...

CITY           SKY/WX    TMP DP  RH WIND       PRES   REMARKS
DENVER INTL AP PTSUNNY   79  36  21 MISG      30.19S
DMNS CITY PARK   N/A     78  40  25 S3        30.19S
AURORA         PTSUNNY   79  36  21 NE7       30.21S
FRONT RANGE AP PTSUNNY   81  32  17 N15G21    30.20S
ERIE MUNI ARPT FAIR      80  33  17 CALM      30.17F
BOULDER MUN AP FAIR      77  43  29 CALM      30.18F
CENTENNIAL     PTSUNNY   77  34  21 NW8       30.22S
BROOMFIELD     MOSUNNY   81  30  16 S3        30.21F
FORT COLLINS   FAIR      75  43  31 SW8       30.16F
LONGMONT       FAIR      82  41  23 CALM      30.19S
$$

COZ041-046-047-076>085-087-088-281800-
...PIKES PEAK/PALMER DIVIDE AND SOUTHERN FOOTHILLS...

CITY           SKY/WX    TMP DP  RH WIND       PRES   REMARKS
COLO. SPRINGS  PTSUNNY   79  41  25 VRB5      30.24S
A. F. ACADEMY  FAIR      75  39  27 N8        30.24F
SCHRIEVER AFB  NOT AVBL
ELLICOTT       NOT AVBL
FALCON         FAIR      76  40  27 NE7       30.29S
FORT CARSON    FAIR      77  44  30 N8        30.20F
LIMON          FAIR      78  50  37 VRB5      30.18F
MONUMENT HILL  FAIR      70  37  30 N7        30.31S
TRINIDAD       FAIR      76  44  32 NW9       30.21S
$$

COZ042>045-048>051-090-091-281800-
...NORTHEAST COLORADO...

CITY           SKY/WX    TMP DP  RH WIND       PRES   REMARKS
GREELEY ARPT   FAIR      73  46  38 W7        30.17S
AKRON          FAIR      82  49  31 VRB7      30.14S
BURLINGTON     FAIR      77  53  43 S10       30.15R
WRAY           NOT AVBL
STERLING       FAIR      81  55  41 SW7       30.10F
HOLYOKE        FAIR      81  57  44 S5        30.11S
FORT MORGAN    FAIR      76  46  34 SW3       30.15S
$$

COZ086-089-092>099-281800-
...SOUTHEAST COLORADO...

CITY           SKY/WX    TMP DP  RH WIND       PRES   REMARKS
PUEBLO         FAIR      79  51  37 W6        30.14F
LA JUNTA       FAIR      80  52  37 W7        30.12F
LAMAR          FAIR      80  58  46 NW6       30.09S
SPRINGFIELD      N/A     72  60  66 S14       30.14S
$$




USA.gov is the U.S. government's official web portal to all federal, state and local government web resources and services.